DW9246 Weather Reports


time (UTC)temp
F
wind
direction
speed
knots
gust
knots
rain 1hr
in
rain 24hr
in
rain mn
in
humidity
%
barometer
mb
20260506181015 62 190 4.3 8.7 0.00 0.00 0.00 70 1011.7
20260506175015 63 197 4.3 9.6 0.00 0.00 0.00 68 1011.4
20260506174015 63 194 6.1 13.0 0.00 0.00 0.00 66 1011.5
20260506173015 64 196 5.2 13.9 0.00 0.00 0.00 67 1011.4
20260506172015 64 194 7.0 13.0 0.00 0.00 0.00 64 1011.4
20260506171017 65 189 6.1 11.3 0.00 0.00 0.00 69 1011.4
20260506170016 65 182 6.1 12.2 0.00 0.00 0.00 66 1011.2
20260506164015 66 140 6.1 11.3 0.00 0.00 0.00 63 1011.1
20260506163016 67 150 7.0 10.4 0.00 0.00 0.00 63 1011.1
20260506162015 67 135 5.2 9.6 0.00 0.01 0.00 62 1011.1
20260506161015 66 146 5.2 10.4 0.00 0.02 0.00 63 1011.1
20260506160015 67 159 6.1 9.6 0.00 0.02 0.00 58 1011.1
20260506155014 67 130 4.3 7.8 0.00 0.02 0.00 60 1011.0
20260506154015 66 162 3.5 6.1 0.00 0.02 0.00 58 1011.0
20260506150015 66 161 3.5 9.6 0.00 0.02 0.00 58 1011.3
20260506145015 66 156 5.2 11.3 0.00 0.02 0.00 57 1011.3
20260506144015 65 131 3.5 7.0 0.00 0.02 0.00 59 1011.3
20260506143014 65 153 5.2 8.7 0.00 0.02 0.00 60 1011.5
20260506142015 66 161 6.1 11.3 0.00 0.02 0.00 60 1011.5
20260506141015 66 164 7.8 14.8 0.00 0.02 0.00 59 1011.6
20260506140016 66 166 7.8 13.0 0.00 0.02 0.00 60 1011.7
20260506135014 65 160 9.6 14.8 0.00 0.02 0.00 61 1011.8
20260506134015 66 143 7.8 14.8 0.00 0.02 0.00 62 1011.7
20260506133017 66 128 7.0 12.2 0.00 0.02 0.00 60 1011.7
20260506132015 66 138 7.0 18.2 0.00 0.02 0.00 60 1011.9
20260506131016 68 127 5.2 14.8 0.00 0.02 0.00 56 1011.6
20260506130016 67 339 3.5 7.8 0.00 0.02 0.00 52 1012.0
20260506125014 68 301 4.3 9.6 0.00 0.02 0.00 52 1012.2
20260506124014 67 239 6.1 13.0 0.00 0.02 0.00 53 1012.2
20260506123014 67 249 6.1 14.8 0.00 0.02 0.00 52 1012.2
20260506122015 67 233 6.1 12.2 0.00 0.02 0.00 53 1012.2
20260506121015 65 270 6.1 12.2 0.00 0.02 0.00 54 1012.3
20260506114014 66 259 6.1 13.9 0.00 0.02 0.00 55 1012.5
20260506113014 66 256 6.1 12.2 0.00 0.02 0.00 56 1012.5
20260506111014 65 345 4.3 11.3 0.00 0.02 0.00 55 1012.6
20260506110015 64 23 4.3 8.7 0.00 0.02 0.00 59 1012.7
20260506104014 65 171 2.6 7.8 0.00 0.02 0.00 59 1012.9
20260506103014 64 130 4.3 9.6 0.00 0.02 0.00 61 1012.9
20260506101014 63 156 4.3 9.6 0.00 0.02 0.00 59 1013.1
20260506100015 63 134 3.5 7.8 0.00 0.02 0.00 60 1013.1
20260506094014 63 138 6.1 11.3 0.00 0.02 0.00 62 1013.3
20260506093015 63 112 6.1 12.2 0.00 0.02 0.00 62 1013.2
20260506092014 62 83 7.8 12.2 0.00 0.02 0.00 59 1013.1
20260506091014 62 91 6.1 12.2 0.00 0.02 0.00 58 1012.9
20260506090017 62 290 3.5 10.4 0.00 0.02 0.00 57 1012.9
20260506083015 60 301 4.3 9.6 0.00 0.02 0.00 59 1012.7
20260506082014 60 327 4.3 13.9 0.00 0.02 0.00 61 1012.7
20260506081015 59 280 3.5 8.7 0.00 0.02 0.00 61 1012.5
20260506073015 57 220 2.6 10.4 0.00 0.02 0.00 68 1012.5
20260506072015 56 186 3.5 7.0 0.00 0.02 0.00 69 1012.5
20260506071015 56 177 1.7 5.2 0.00 0.02 0.00 70 1012.4
20260506062014 55 76 1.7 3.5 0.00 0.02 0.00 71 1012.2
20260506061021 54 109 1.7 3.5 0.00 0.02 0.00 73 1012.1
20260506051015 50 290 1.7 3.5 0.00 0.02 0.00 76 1011.7
20260506045015 51 40 2.6 6.1 0.00 0.02 0.00 75 1011.6
20260506044015 49 352 2.6 4.3 0.00 0.02 0.00 76 1011.6
20260506041015 50 316 4.3 6.1 0.00 0.02 0.00 76 1011.7
20260506040017 50 305 3.5 6.1 0.00 0.02 0.00 76 1011.7
20260506034016 52 278 2.6 5.2 0.00 0.02 0.00 74 1011.7
20260506032015 52 329 1.7 4.3 0.00 0.02 0.00 74 1011.7
20260506022014 53 270 6.1 9.6 0.00 0.02 0.00 72 1011.5
20260506020020 54 272 7.0 13.0 0.00 0.02 0.00 72 1011.2
20260506015014 54 272 7.8 11.3 0.00 0.02 0.00 71 1011.3
20260506014015 56 277 7.0 10.4 0.00 0.02 0.00 67 1011.4
20260506012016 57 307 7.8 13.9 0.00 0.02 0.00 63 1011.3
20260506011014 57 309 7.8 13.0 0.00 0.02 0.00 63 1011.4
20260506010017 56 320 5.2 10.4 0.00 0.02 0.00 64 1011.3
20260506005015 56 352 0.9 2.6 0.00 0.02 0.00 66 1011.5
20260506002015 56 306 5.2 11.3 0.00 0.02 0.00 69 1011.5
20260506001015 57 295 8.7 14.8 0.00 0.02 0.00 68 1011.6
20260505235015 57 291 8.7 17.4 0.00 0.02 0.02 65 1011.8
20260505234015 58 278 6.1 12.2 0.00 0.02 0.02 64 1011.8
20260505233015 58 288 7.8 12.2 0.00 0.02 0.02 63 1011.8
20260505232015 58 305 7.0 13.0 0.00 0.02 0.02 62 1011.7
20260505230019 58 319 9.6 15.6 0.00 0.02 0.02 62 1011.3
20260505225014 56 320 7.0 10.4 0.00 0.02 0.02 66 1011.4
20260505224014 55 342 6.1 9.6 0.00 0.02 0.02 71 1011.5
20260505223014 55 337 6.1 10.4 0.00 0.02 0.02 70 1011.6
20260505222015 57 328 5.2 8.7 0.00 0.02 0.02 66 1011.8
20260505221017 58 333 7.0 13.0 0.00 0.02 0.02 63 1011.9
20260505220016 58 4 8.7 15.6 0.00 0.02 0.02 64 1012.1
20260505215016 59 359 10.4 18.2 0.00 0.02 0.02 64 1012.0
20260505213014 57 327 16.5 28.7 0.00 0.02 0.02 68 1012.1
20260505212014 57 308 10.4 17.4 0.00 0.02 0.02 73 1012.4
20260505211014 57 282 7.8 21.7 0.00 0.02 0.02 78 1012.8
20260505210015 56 300 5.2 9.6 0.00 0.02 0.02 82 1012.7
20260505203014 55 318 2.6 6.1 0.00 0.02 0.02 83 1012.2
20260505202014 55 319 2.6 3.5 0.00 0.02 0.02 83 1012.2
20260505201014 56 319 1.7 2.6 0.00 0.02 0.02 83 1012.0
20260505200015 56 319 1.7 3.5 0.00 0.02 0.02 83 1011.7
20260505195014 56 319 1.7 3.5 0.00 0.02 0.02 82 1011.7
20260505194014 56 314 1.7 3.5 0.00 0.02 0.02 82 1011.4
20260505193019 57 334 2.6 4.3 0.00 0.03 0.02 82 1011.1
20260505192013 57 330 2.6 4.3 0.00 0.03 0.02 82 1011.1
20260505191015 57 336 1.7 5.2 0.00 0.03 0.02 82 1011.2
20260505190016 57 330 3.5 6.1 0.00 0.03 0.02 81 1011.1
20260505184013 58 331 1.7 3.5 0.00 0.04 0.02 81 1011.1
20260505183014 59 331 1.7 3.5 0.00 0.05 0.02 81 1011.0
20260505182014 59 331 0.9 2.6 0.00 0.06 0.02 81 1011.1